{"data":{"norad_id":81969,"intl_designator":"","name":"UNKNOWN","alt_names":[],"object_type":"UNKNOWN","status":"UNKNOWN","operator":null,"country":null,"launch_date":null,"launch_site_code":null,"launch_vehicle":null,"mission":null,"orbit_class":"UNKNOWN","rcs_meters":null,"size_class":null,"mass_kg":null,"dimensions":null,"purposes":[],"wikipedia_slug":null,"has_3d_model":false,"image_url":null,"decayed_at":null,"tle_current":{"epoch":"2026-05-23T06:09:17.680032Z","epoch_age_seconds":229726,"freshness":"STALE","line1":"1 81969U          26143.25645463  .00008008  00000+0  43082-3 0  9999","line2":"2 81969  86.6825  83.0700 0002220 352.9037   7.2172 15.14713271464592","mean_motion":15.14713271,"eccentricity":0.000222,"inclination_deg":86.6825,"raan_deg":83.07,"arg_perigee_deg":352.9037,"mean_anomaly_deg":7.2172,"bstar":0.00043082,"rev_number":46459,"period_min":95.067497431334,"perigee_km":520.31738512818,"apogee_km":523.38097899301,"semimajor_km":6899.9861820606,"source":"CELESTRAK","updated_at":"2026-05-25T13:38:11.089538Z"}}}